Tracking 30995 objects as of 6-Jul-2025
HD Live streaming from Space Station
objects crossing your sky now

METEOR 1-27

Track METEOR 1-27 now!
10-day predictions
METEOR 1-27 is classified as:


NORAD ID: 9903
Int'l Code: 1977-024A
Perigee: 845.2 km
Apogee: 896.9 km
Inclination: 81.3 °
Period: 102.2 minutes
Semi major axis: 7242 km
RCS: 4.395 m2 (large)
Launch date: April 5, 1977
Source: Commonwealth of Independent States (former USSR) (CIS)
Launch site: PLESETSK MISSILE AND SPACE COMPLEX (PKMTR)
Your satellite tracking list
DODONA
Track 1 satellite(s)




NASA's NSSDC Master Catalog

Two Line Element Set (TLE):
1 09903U 77024A   25187.29259040 -.00000053  00000-0 -37515-4 0  9990
2 09903  81.2742 112.4730 0035702 260.7024  99.0108 14.08677573478850
Source of the keplerian elements: AFSPC